Weather in Zlocieniec

Poland     53°31′50″N   16°00′24″E
temp.,
°C
wind,
m/s
gust,
m/s
humid.,
%
clouds,
%
prec.,
mm/h
press.,
hPa
HPBL,
m
16 may, sun
sun1623:00+11sse4890100 2.6 1005265
02:00+10sse2495100 2.8 1004167
05:00+9se369697 0.1 1004138
08:00+11ssw479193 0.3 1004464
11:00+12s3584100 0.1 1003473
14:00+15sw4566100 0.7 10031154
17:00+14sw457161 1.4 10021187
20:00+11sw26894 2.8 1002182
17 may, mon
mon1723:00+9ssw23946 0.0 100353
02:00+8s24945 0.0 100371
05:00+7s25978 0.0 1002104
08:00+11ssw2487100 0.0 1003315
11:00+14wsw2266100 0.0 1004924
14:00+16ssw2358100 0.6 10041406
17:00+14sw2274100 1.5 1004699
20:00+12w2288100 3.6 100533
18 may, tue
tue1823:00+10wnw1292100 0.1 100518
02:00+10w2294100 0.1 100552
05:00+9w2697100 0.0 1005150
08:00+11w358897 0.0 1006366
11:00+14wnw457168 0.9 10071175
14:00+14w4675100 2.6 10081049
17:00+13wnw468583 1.4 1009679
20:00+11n24895 2.3 1010108
19 may, wed
wed1923:00+8nw12945 0.0 101113
02:00+7wnw11925 0.0 101112
05:00+6wnw119494 0.0 101213
08:00+9w1291100 0.1 1012159
11:00+10wnw2386100 0.0 1013413
14:00+12nw457999 0.7 1012802
17:00+12nnw4569100 0.6 10121131
20:00+10nnw367292 0.6 1013224
20 may, thu
thu2023:00+6nw348762 0.0 101473
02:00+5wnw25955 0.0 101497
05:00+5w369790 0.0 1015121
08:00+10wnw477511 0.0 1015512
11:00+14wnw57515 0.0 10151738
14:00+16wnw674350 0.0 10142235
17:00+12wnw576916 1.2 10151261
20:00+10wnw48786 1.7 1015550